Weather in Cadiz

Spain     36˚31′41″N   6˚17′20″W
temp.,
°C
wind,
m/s
gust,
m/s
humid.,
%
clouds,
%
prec.,
mm/h
press.,
hPa
HPBL,
m
16 january, sat
sat1601:00+11˚nnw33710 0.0 1027236
04:00+8˚nne57760 0.0 1027158
07:00+8˚n46770 0.0 1027133
10:00+8˚n69720 0.0 1027234
13:00+12˚n79620 0.0 1027415
16:00+14˚n69550 0.0 1026474
19:00+12˚ne46660 0.0 1026167
22:00+10˚ese44710 0.0 1028120
17 january, sun
sun1701:00+9˚e45790 0.0 1029161
04:00+8˚ne44760 0.0 1028105
07:00+9˚ene33760 0.0 102895
10:00+9˚nne34750 0.0 1028124
13:00+12˚nne12610 0.0 1029215
16:00+15˚nnw22550 0.0 1026295
19:00+13˚n226238 0.0 1027116
22:00+11˚ne116683 0.0 102754
18 january, mon
mon1801:00+11˚e226986 0.0 102754
04:00+10˚e227655 0.0 102655
07:00+10˚e228228 0.0 102673
10:00+11˚e22820 0.0 1027114
13:00+15˚s23723 0.0 1027634
16:00+15˚ssw32720 0.0 1025596
19:00+13˚sse33780 0.0 1026290
22:00+12˚se33800 0.0 1026261
19 january, tue
tue1901:00+11˚se34800 0.0 1027232
04:00+10˚se33840 0.0 1026154
07:00+10˚se45850 0.0 1025167
10:00+11˚se458267 0.0 1026322
13:00+14˚sse567281 0.0 1025850
16:00+14˚s557261 0.0 1023669
19:00+13˚s467880 0.0 1022607
22:00+13˚s5779100 0.0 1022575
20 january, wed
wed2001:00+14˚ssw6976100 0.0 1021776
04:00+15˚ssw91177100 0.1 10181014
07:00+15˚ssw111477100 0.4 10161146
10:00+14˚sw131788100 3.9 10151076
13:00+15˚sw131687100 11.1 10151072
16:00+16˚w8117954 2.3 10131091
19:00+15˚w7128341 2.9 1014661
22:00+15˚w6108634 1.7 1017511